Temperature
10 11 11 11 11 11 10 9 9 10 10 11 10 9 10 10 9 9 9 8 8 8 7 7 7 6 6 6 5 5 5 5 4 4 4 4 3 3 3 3 2 2 2 2
10 11 10 10 10 10 10 10 9 10 10 10 9 10 9 9 8 8 8 7 7 7 7 6 6 5 5 5 5 4 4 4 4 3 3 3 2 2 2 2 1 1 1 1
8 9 9 9 10 10 10 10 9 9 9 8 8 8 9 8 8 7 7 7 6 6 6 5 5 5 4 4 4 3 3 3 3 2 2 2 1 1 1 1 0 0 0 0
7 9 8 10 11 11 10 9 9 8 8 8 8 8 8 8 7 6 6 6 5 5 5 5 4 4 4 3 3 3 2 2 1 1 1 1 0 0 -0 -0 -0 -0 -0 -1
6 7 7 9 10 11 10 9 8 7 7 7 7 7 7 7 6 6 5 5 5 4 4 4 3 3 3 2 2 2 1 1 0 -0 -0 -0 -1 -1 -1 -1 -1 -1 -1 -1
5 7 7 9 10 11 10 8 7 7 6 6 6 4 5 6 5 5 5 4 4 4 3 3 3 2 2 2 1 1 0 0 -0 -1 -1 -1 -1 -1 -1 -2 -2 -2 -2 -2
5 5 7 8 9 10 9 7 7 7 6 6 5 4 5 4 4 4 4 3 3 3 3 2 2 1 1 1 1 0 -0 -0 -1 -1 -1 -2 -2 -2 -2 -2 -2 -2 -2 -2
4 5 6 8 8 7 7 7 6 6 5 5 4 4 4 4 3 3 3 3 2 2 2 2 1 1 0 0 -0 -0 -1 -1 -1 -1 -2 -2 -2 -2 -2 -3 -3 -3 -3 -3
6 7 7 8 7 7 7 6 5 5 4 4 4 3 3 3 3 2 2 2 2 1 1 1 1 0 -0 -1 -1 -1 -2 -2 -2 -2 -2 -2 -2 -3 -3 -3 -3 -3 -3 -3
5 6 6 7 6 6 5 5 4 4 4 3 3 3 2 2 2 2 2 1 1 1 0 0 -0 -1 -1 -1 -2 -2 -2 -2 -2 -2 -3 -3 -3 -3 -3 -3 -4 -4 -4 -4
5 5 6 6 5 5 5 5 4 4 4 3 3 2 2 2 2 1 1 1 0 0 -0 -1 -1 -1 -2 -2 -2 -3 -3 -3 -3 -3 -3 -3 -3 -3 -4 -4 -4 -4 -4 -4
5 6 5 5 5 5 5 4 4 4 3 3 2 2 2 1 1 1 1 0 0 -0 -1 -1 -2 -2 -2 -3 -3 -3 -4 -4 -4 -4 -4 -4 -4 -4 -4 -4 -4 -4 -4 -5
6 6 6 5 5 4 4 4 3 3 3 2 2 1 1 1 1 0 0 -0 -1 -1 -1 -2 -2 -2 -3 -3 -3 -4 -4 -4 -4 -4 -4 -4 -4 -5 -5 -4 -5 -5 -5 -5
5 5 5 4 4 4 3 3 3 2 2 2 1 1 1 0 0 -0 -0 -1 -1 -2 -2 -2 -3 -3 -3 -4 -4 -4 -4 -4 -4 -4 -4 -5 -5 -5 -5 -5 -5 -5 -5 -5
4 4 4 4 4 3 3 2 2 2 2 1 1 1 0 -0 -0 -1 -1 -1 -2 -2 -2 -3 -3 -3 -4 -4 -4 -4 -5 -5 -5 -5 -5 -5 -5 -6 -6 -6 -6 -5 -5 -5
4 4 3 3 3 3 2 2 1 1 1 1 0 0 -0 -1 -1 -1 -1 -2 -2 -3 -3 -3 -4 -4 -4 -5 -5 -5 -5 -5 -5 -5 -5 -5 -6 -6 -6 -6 -6 -6 -6 -6
3 3 3 2 2 2 2 1 1 1 0 0 -0 -0 -1 -1 -1 -2 -2 -2 -3 -3 -3 -4 -4 -5 -5 -5 -5 -5 -5 -5 -5 -5 -6 -6 -6 -6 -6 -6 -6 -6 -6 -6
3 2 2 2 2 1 1 1 1 0 -0 -0 -1 -1 -1 -2 -2 -2 -3 -3 -3 -3 -3 -4 -5 -5 -5 -5 -5 -6 -5 -5 -6 -6 -6 -6 -6 -6 -6 -6 -6 -6 -6 -6
2 2 1 1 1 1 0 0 0 -0 -0 -1 -1 -2 -2 -2 -3 -3 -3 -3 -4 -4 -4 -5 -5 -5 -5 -5 -6 -6 -6 -6 -6 -6 -6 -6 -6 -6 -6 -6 -6 -6 -6 -7
1 1 1 1 1 0 -0 -0 -0 -1 -1 -1 -2 -2 -2 -3 -3 -3 -4 -4 -4 -5 -5 -5 -6 -6 -6 -6 -6 -6 -6 -6 -6 -6 -6 -7 -7 -6 -6 -6 -7 -7 -7 -7
1 1 0 0 -0 -0 -1 -1 -1 -2 -2 -2 -2 -3 -3 -3 -3 -4 -4 -5 -5 -5 -6 -6 -6 -6 -6 -6 -6 -6 -6 -6 -6 -7 -7 -7 -7 -7 -7 -7 -7 -7 -7 -8
0 -0 -0 -1 -1 -1 -1 -1 -2 -2 -2 -3 -3 -3 -4 -4 -4 -4 -5 -5 -5 -6 -6 -6 -6 -6 -6 -6 -6 -6 -6 -7 -7 -7 -7 -7 -7 -7 -7 -7 -7 -7 -8 -8
-1 -1 -1 -1 -1 -2 -2 -2 -2 -3 -3 -3 -3 -4 -4 -4 -5 -5 -6 -5 -6 -6 -6 -6 -6 -7 -7 -6 -6 -7 -7 -7 -7 -7 -7 -7 -7 -7 -7 -7 -8 -8 -8 -8
-1 -1 -2 -2 -2 -2 -2 -2 -3 -3 -3 -4 -4 -4 -4 -5 -5 -5 -6 -6 -6 -6 -6 -6 -7 -7 -7 -7 -7 -7 -7 -7 -7 -7 -7 -7 -7 -7 -7 -8 -8 -8 -8 -8
-2 -2 -2 -2 -3 -3 -3 -3 -3 -3 -4 -4 -4 -4 -5 -5 -5 -6 -6 -6 -6 -7 -7 -7 -7 -7 -7 -7 -8 -8 -8 -8 -8 -8 -7 -7 -7 -7 -8 -8 -8 -8 -8 -8
-2 -3 -3 -3 -3 -3 -4 -4 -4 -4 -5 -5 -5 -5 -5 -5 -6 -6 -6 -6 -7 -7 -7 -7 -7 -8 -8 -8 -8 -8 -8 -8 -8 -8 -7 -7 -7 -8 -8 -8 -8 -8 -8 -9
-3 -3 -3 -3 -3 -4 -4 -4 -5 -5 -5 -5 -5 -5 -5 -6 -6 -6 -7 -7 -7 -7 -8 -8 -8 -8 -8 -8 -8 -8 -8 -8 -8 -8 -7 -7 -8 -8 -8 -8 -8 -8 -9 -9
Wind_Speed
8 8 6 10 13 10 10 10 10 11 12 12 7 4 3 4 4 5 6 7 8 8 8 9 9 9 9 10 10 9 10 10 11 12 12 12 12 12 12 11 12 12 12 13
5 6 8 13 16 13 11 9 10 11 10 4 2 2 3 4 4 5 7 8 9 9 10 10 10 10 10 10 10 10 11 12 13 13 12 12 13 12 12 12 12 12 13 13
5 5 7 10 9 5 4 4 5 4 3 3 4 5 5 3 3 6 9 10 10 10 10 10 11 10 10 10 11 11 12 13 13 13 13 13 13 13 13 13 12 12 13 13
2 3 7 8 2 3 3 1 1 2 1 2 4 6 5 2 4 8 9 10 10 10 11 10 9 10 10 11 11 12 13 13 13 13 14 14 13 13 14 12 12 12 13 13
3 4 9 10 4 1 2 1 2 2 2 4 6 5 4 3 5 8 9 10 10 10 10 10 11 11 12 12 12 13 14 14 14 14 16 15 14 14 14 13 12 12 12 13
5 5 8 8 4 2 1 3 1 2 3 5 6 7 6 6 9 10 11 10 10 10 9 10 12 12 13 14 14 15 15 15 15 14 15 16 16 15 13 12 13 13 13 12
6 7 9 7 5 1 2 4 2 2 3 4 3 6 9 10 10 10 10 11 11 10 10 11 12 13 14 15 15 16 16 16 15 15 15 15 15 13 13 13 13 13 14 12
6 6 9 3 2 3 3 1 2 3 4 6 8 10 9 9 10 11 11 11 11 11 13 12 12 13 16 17 17 16 16 16 16 15 14 14 14 14 13 13 14 13 13 12
9 8 2 3 5 3 2 2 3 4 6 7 7 8 8 8 10 10 11 11 11 13 15 14 12 12 16 18 17 17 16 16 16 15 14 13 14 15 14 12 12 12 11 11
4 4 2 4 4 2 2 4 5 5 6 5 6 8 10 10 11 11 11 13 12 14 16 18 16 14 15 17 16 16 17 17 15 15 15 14 12 11 12 12 12 12 12 12
4 3 1 2 2 2 2 3 4 4 4 5 7 9 10 11 12 12 13 12 12 14 17 19 18 17 15 15 15 17 17 16 15 14 15 14 12 11 12 12 14 15 12 11
6 4 3 4 3 2 2 4 5 5 6 7 7 10 11 12 12 13 14 14 15 15 16 18 18 18 16 15 14 16 16 15 14 13 13 12 13 14 15 17 22 22 20 17
3 3 4 4 3 2 3 4 5 6 7 9 9 10 11 12 11 13 14 15 16 17 17 18 18 18 17 15 14 15 16 16 14 13 13 13 12 13 14 15 17 18 19 19
2 2 2 2 3 4 4 5 6 8 8 9 10 11 12 13 13 15 16 16 16 16 17 17 18 19 17 16 15 16 16 17 16 13 12 12 12 12 12 13 13 11 13 16
1 2 3 4 4 5 5 6 8 10 10 11 10 11 13 14 16 17 16 15 15 16 17 17 18 19 17 16 15 16 15 13 13 12 12 12 11 11 11 12 12 12 10 11
2 2 2 3 6 7 7 8 9 11 12 12 13 14 14 14 15 16 15 14 15 17 18 18 18 18 17 16 16 14 13 20 18 13 12 11 11 11 11 11 11 10 10 9
1 3 4 6 7 8 8 9 10 12 12 14 15 15 15 15 16 16 15 14 13 15 15 16 17 17 16 15 15 13 13 14 19 15 11 11 11 11 11 10 10 10 9 10
2 3 5 6 8 10 11 11 11 13 13 14 15 14 15 16 17 18 17 16 15 15 14 14 15 17 15 15 14 12 12 12 11 11 11 11 11 10 10 10 10 11 9 10
4 5 7 9 10 10 11 13 13 12 13 13 14 15 15 15 15 16 16 16 17 17 15 13 23 19 15 16 19 11 12 12 11 11 10 14 13 10 10 10 10 10 9 8
6 8 9 10 11 11 12 13 14 14 13 12 13 14 16 15 14 15 15 14 12 12 14 18 17 13 13 15 19 11 11 11 11 11 11 10 10 10 10 10 10 9 8 8
10 11 11 12 12 12 12 13 13 15 15 13 13 15 16 16 14 13 14 15 13 12 15 21 15 12 13 16 19 11 10 10 10 10 11 10 10 10 10 9 9 8 8 7
9 10 12 12 12 13 12 11 12 14 15 14 14 14 14 15 14 13 12 11 13 19 16 12 11 17 22 22 11 10 10 11 10 10 10 10 10 10 9 9 8 8 7 6
10 11 12 12 13 14 14 12 12 13 13 14 14 14 14 13 11 12 14 11 11 19 16 11 18 26 28 16 10 10 11 11 10 10 10 9 9 9 9 9 7 7 6 6
11 11 12 12 11 12 14 14 12 11 12 13 12 12 12 11 11 9 10 17 21 23 14 17 25 26 24 11 10 10 10 10 10 10 9 9 8 8 7 7 7 6 6 6
11 12 12 12 11 11 12 13 12 12 11 10 11 11 9 8 10 11 11 12 19 20 13 17 24 24 16 10 10 10 10 10 11 10 9 9 8 8 7 6 6 6 5 5
12 11 11 11 11 11 10 10 10 10 10 11 10 9 8 8 9 10 10 11 13 18 14 11 13 15 11 11 11 11 10 11 11 10 9 9 8 7 7 6 6 5 5 5
11 10 9 10 9 8 8 9 10 10 10 10 12 10 9 9 9 10 11 11 11 11 11 11 11 10 10 10 11 11 10 10 9 9 9 8 7 6 6 6 5 5 5 4
Wind_Direction
249 260 261 260 266 252 228 219 232 254 262 281 292 293 307 328 349 1 346 335 327 315 307 305 306 306 304 303 304 305 303 300 296 294 292 288 287 286 283 280 278 276 275 273
277 272 276 276 271 260 249 237 236 259 272 295 320 7 351 352 359 346 328 317 310 307 307 306 305 305 305 305 304 304 301 298 298 298 296 293 291 288 284 281 279 278 276 276
272 307 331 281 260 228 226 231 215 232 267 358 360 344 322 320 329 316 311 307 307 307 303 301 301 302 305 302 304 304 300 299 299 298 296 293 291 290 287 285 283 281 278 276
254 357 255 246 238 209 194 331 57 100 46 347 300 287 273 260 317 310 307 307 307 306 304 303 302 305 304 304 306 304 302 301 300 299 297 295 291 289 288 286 284 283 282 280
168 236 277 293 293 202 183 181 57 76 335 315 302 311 290 284 321 308 306 305 302 301 300 303 306 308 310 310 308 306 305 303 302 301 300 298 295 293 291 289 287 284 283 282
160 198 244 252 279 306 100 229 349 28 346 334 354 342 297 306 312 304 303 303 304 306 305 307 309 311 311 310 310 308 306 303 301 300 298 297 296 294 293 290 288 288 286 281
185 218 259 263 291 45 198 264 308 332 321 317 290 259 279 298 298 297 300 303 306 307 306 305 308 311 310 310 308 305 304 302 301 300 297 296 296 295 294 293 291 289 287 283
167 201 253 282 86 132 215 243 258 281 277 274 269 276 288 297 302 309 311 311 310 310 309 308 306 308 308 308 306 305 304 303 302 301 299 300 297 298 295 293 293 292 290 288
190 211 203 94 123 140 172 236 256 262 270 274 284 293 301 303 306 308 307 308 309 308 309 309 306 303 303 305 307 307 305 304 303 302 299 297 297 299 299 296 295 294 292 292
230 252 170 137 140 167 216 230 251 261 274 288 295 301 306 307 308 309 307 308 308 309 311 311 310 304 299 303 306 307 306 305 304 304 302 300 297 296 296 296 295 294 294 293
253 266 172 194 212 231 257 276 288 296 294 300 304 306 304 306 306 306 307 305 304 305 306 307 308 308 306 306 308 307 305 305 305 303 303 304 300 296 295 288 288 294 293 291
237 222 202 246 248 250 289 304 307 311 312 309 303 299 301 303 301 302 304 305 307 305 305 307 309 310 311 309 308 307 309 309 308 306 305 304 305 304 297 296 300 301 299 296
202 200 206 230 240 255 274 290 295 294 292 297 297 292 296 298 297 299 302 303 304 305 306 308 310 310 311 311 309 306 305 307 307 305 305 306 306 307 308 308 305 304 303 301
184 170 215 235 260 283 290 294 298 297 292 287 289 292 294 297 298 300 301 302 302 304 306 307 309 310 311 310 309 306 305 306 307 304 304 303 303 303 304 306 309 308 306 307
268 222 236 268 294 307 312 314 314 308 302 299 294 294 296 299 300 301 301 302 303 304 307 309 309 309 311 310 308 307 307 306 306 305 304 303 303 302 301 300 300 302 304 307
284 319 316 309 308 309 312 312 306 300 300 299 301 300 297 294 295 298 300 303 306 307 309 308 307 307 309 309 308 308 306 307 312 309 307 306 305 303 303 302 301 302 304 305
280 314 315 311 306 302 297 290 287 290 295 297 299 300 301 302 303 304 305 304 298 298 300 301 302 305 307 306 307 307 306 307 310 309 304 304 303 302 302 302 303 303 301 302
238 261 270 275 283 290 293 292 290 291 292 293 296 300 302 304 305 305 306 308 307 304 300 297 300 308 308 307 307 305 305 303 304 304 304 304 304 302 302 303 303 302 303 304
307 294 291 288 285 285 287 290 291 289 288 292 295 298 298 298 298 300 304 307 309 310 309 307 312 316 309 309 312 304 303 303 305 305 304 307 308 304 304 304 303 302 303 303
301 295 293 291 289 285 286 289 291 293 293 293 295 297 300 300 300 301 303 301 296 295 301 308 312 311 310 310 311 307 307 306 307 307 306 305 304 305 306 306 306 305 304 303
292 290 289 288 288 286 285 288 292 294 296 294 293 294 297 299 299 299 303 306 303 300 307 312 317 312 312 314 316 313 310 307 306 306 306 306 307 307 307 308 308 308 307 306
284 285 286 287 290 293 292 289 289 291 294 294 292 292 296 299 301 300 291 292 300 310 316 310 310 313 320 321 318 313 310 308 307 306 306 306 307 307 309 310 309 309 307 306
284 285 287 288 290 293 295 293 289 290 290 291 293 294 294 295 298 302 306 305 307 313 318 308 314 319 323 325 316 312 311 310 309 308 306 305 305 306 309 309 308 306 305 305
288 289 288 288 290 293 295 295 293 290 286 287 286 285 288 296 298 291 290 304 314 315 313 312 319 322 326 323 314 313 312 311 308 306 306 306 305 306 307 307 305 303 303 305
287 288 288 290 292 291 290 294 297 295 291 292 289 286 283 283 290 299 301 303 311 316 313 315 319 322 323 314 314 313 312 309 308 310 308 308 307 308 307 305 303 303 304 305
287 289 288 284 282 286 290 292 294 296 298 299 299 297 295 294 292 297 301 303 304 312 315 311 312 316 317 314 313 314 313 311 310 309 307 308 308 308 305 304 303 303 303 303
287 286 288 290 288 283 283 286 289 293 294 295 299 300 300 301 302 303 304 307 309 310 311 311 313 315 314 314 314 314 314 312 310 308 309 310 309 306 303 301 300 301 303 303
Height
1527 1524 1524 1522 1519 1519 1522 1522 1524 1514 1509 1503 1502 1501 1500 1498 1496 1495 1493 1491 1487 1484 1480 1475 1470 1466 1461 1456 1451 1446 1440 1435 1429 1423 1417 1412 1406 1400 1395 1390 1385 1380 1375 1370
1525 1521 1521 1518 1511 1511 1512 1511 1511 1508 1506 1502 1501 1500 1498 1497 1495 1493 1490 1487 1484 1479 1475 1470 1465 1460 1455 1449 1444 1439 1432 1426 1420 1414 1408 1402 1397 1391 1386 1380 1375 1370 1365 1360
1532 1526 1523 1518 1505 1504 1504 1503 1504 1506 1505 1502 1501 1499 1497 1495 1493 1491 1487 1483 1479 1475 1470 1465 1460 1454 1448 1442 1437 1431 1424 1418 1411 1405 1399 1393 1387 1382 1376 1371 1365 1360 1355 1349
1534 1528 1529 1507 1499 1499 1501 1502 1502 1502 1503 1502 1501 1498 1495 1493 1491 1487 1483 1479 1474 1470 1465 1460 1454 1448 1442 1436 1429 1422 1416 1409 1403 1397 1390 1384 1378 1373 1367 1362 1356 1350 1345 1340
1535 1532 1523 1506 1497 1496 1498 1502 1502 1502 1501 1500 1497 1494 1492 1490 1487 1484 1480 1475 1470 1465 1460 1454 1448 1442 1435 1428 1421 1415 1408 1401 1395 1389 1382 1376 1370 1364 1358 1353 1346 1341 1336 1330
1533 1530 1524 1503 1496 1494 1497 1502 1502 1500 1499 1497 1494 1495 1491 1487 1484 1480 1475 1470 1465 1460 1454 1448 1442 1435 1428 1420 1414 1407 1401 1394 1388 1382 1375 1368 1361 1355 1349 1344 1337 1332 1326 1322
1528 1528 1513 1499 1495 1495 1503 1503 1501 1498 1497 1496 1494 1493 1488 1483 1479 1475 1470 1465 1459 1454 1448 1442 1436 1428 1421 1414 1407 1400 1393 1386 1380 1374 1367 1360 1353 1347 1341 1335 1328 1323 1317 1312
1525 1526 1514 1496 1495 1499 1500 1499 1498 1496 1495 1493 1490 1486 1482 1478 1473 1469 1464 1459 1453 1447 1441 1435 1429 1422 1414 1407 1400 1393 1385 1378 1371 1365 1358 1352 1345 1338 1332 1326 1320 1314 1308 1303
1506 1502 1496 1494 1495 1497 1497 1496 1495 1493 1491 1488 1485 1481 1477 1473 1468 1463 1459 1453 1447 1441 1434 1427 1422 1415 1407 1399 1392 1385 1377 1370 1363 1356 1350 1344 1337 1330 1324 1318 1312 1306 1301 1296
1498 1494 1494 1494 1494 1494 1494 1493 1491 1489 1487 1484 1480 1476 1472 1468 1463 1458 1453 1447 1441 1434 1426 1419 1413 1407 1401 1393 1385 1377 1369 1361 1354 1347 1341 1335 1329 1323 1317 1311 1305 1299 1294 1289
1494 1492 1492 1492 1492 1491 1490 1489 1487 1485 1482 1479 1476 1472 1468 1463 1458 1453 1447 1441 1434 1428 1420 1412 1405 1398 1392 1385 1377 1369 1361 1354 1347 1340 1333 1327 1321 1316 1310 1304 1300 1294 1288 1284
1491 1489 1490 1490 1489 1488 1487 1485 1483 1481 1478 1475 1473 1468 1463 1458 1453 1447 1441 1434 1427 1420 1413 1405 1397 1390 1383 1377 1370 1362 1353 1346 1339 1333 1326 1320 1313 1307 1302 1297 1292 1287 1282 1278
1487 1487 1487 1487 1486 1485 1484 1482 1480 1478 1475 1472 1468 1464 1458 1453 1447 1441 1434 1427 1420 1413 1405 1398 1390 1382 1375 1369 1362 1355 1347 1340 1333 1326 1320 1313 1307 1300 1293 1288 1284 1280 1275 1271
1485 1485 1485 1484 1484 1483 1481 1479 1477 1474 1471 1467 1463 1457 1452 1446 1439 1433 1427 1420 1413 1405 1398 1390 1382 1374 1368 1361 1354 1347 1341 1334 1327 1320 1314 1307 1301 1295 1289 1283 1276 1271 1268 1265
1483 1483 1483 1482 1481 1479 1477 1475 1472 1468 1465 1460 1456 1451 1445 1439 1432 1425 1419 1412 1405 1397 1390 1382 1374 1367 1361 1354 1347 1340 1333 1327 1320 1314 1307 1301 1295 1290 1284 1278 1273 1267 1262 1258
1481 1480 1480 1479 1477 1475 1473 1471 1467 1463 1458 1453 1448 1443 1437 1431 1424 1417 1411 1405 1397 1389 1382 1374 1367 1360 1353 1347 1340 1333 1326 1320 1314 1308 1301 1295 1289 1284 1279 1273 1268 1263 1258 1254
1479 1478 1477 1476 1474 1472 1469 1466 1463 1458 1453 1447 1441 1435 1429 1422 1415 1408 1402 1396 1390 1382 1375 1368 1360 1353 1347 1340 1334 1326 1320 1313 1307 1302 1295 1290 1284 1279 1274 1269 1264 1259 1254 1250
1477 1477 1475 1474 1471 1468 1464 1460 1456 1451 1446 1440 1434 1428 1422 1415 1408 1400 1394 1387 1380 1373 1367 1361 1354 1346 1340 1334 1327 1320 1313 1307 1301 1296 1290 1284 1279 1274 1269 1264 1259 1255 1249 1245
1475 1473 1472 1469 1466 1463 1458 1454 1449 1444 1439 1433 1427 1420 1414 1408 1401 1394 1387 1379 1372 1364 1358 1353 1346 1340 1333 1326 1320 1313 1307 1301 1296 1290 1285 1279 1274 1269 1265 1260 1255 1250 1246 1241
1471 1469 1466 1463 1460 1456 1451 1446 1441 1436 1431 1425 1419 1412 1405 1399 1393 1386 1379 1372 1367 1360 1352 1346 1339 1333 1326 1319 1314 1308 1302 1296 1290 1285 1279 1274 1269 1265 1260 1256 1251 1246 1242 1237
1466 1463 1460 1456 1452 1448 1444 1439 1434 1428 1422 1417 1411 1404 1398 1391 1385 1379 1372 1364 1358 1353 1346 1340 1334 1327 1320 1314 1309 1303 1297 1291 1285 1280 1275 1270 1265 1260 1256 1252 1247 1243 1238 1234
1459 1456 1452 1448 1444 1439 1435 1430 1425 1419 1413 1408 1402 1397 1390 1383 1377 1371 1366 1360 1352 1346 1340 1333 1327 1321 1315 1310 1303 1297 1291 1286 1280 1276 1271 1266 1261 1257 1252 1248 1243 1239 1235 1231
1452 1448 1444 1440 1435 1430 1425 1421 1416 1411 1405 1399 1394 1389 1383 1377 1371 1365 1357 1352 1346 1340 1334 1328 1322 1316 1310 1304 1298 1292 1286 1281 1276 1271 1267 1262 1258 1253 1249 1245 1240 1236 1232 1229
1444 1440 1436 1431 1426 1421 1416 1411 1406 1402 1397 1392 1387 1382 1376 1370 1363 1359 1353 1346 1340 1334 1328 1322 1316 1310 1304 1298 1292 1287 1281 1276 1272 1267 1263 1258 1254 1250 1246 1241 1237 1233 1230 1226
1435 1431 1426 1422 1417 1412 1407 1402 1397 1392 1388 1383 1378 1374 1369 1364 1358 1351 1346 1340 1334 1328 1321 1316 1310 1304 1299 1293 1287 1282 1277 1272 1268 1263 1259 1255 1251 1246 1242 1238 1234 1231 1228 1224
1426 1422 1418 1414 1410 1405 1400 1395 1390 1385 1380 1375 1370 1366 1362 1357 1351 1345 1339 1333 1328 1322 1316 1310 1304 1299 1293 1288 1283 1278 1273 1268 1263 1259 1255 1251 1247 1243 1239 1235 1232 1229 1226 1223
1418 1414 1409 1405 1401 1397 1392 1388 1383 1378 1374 1369 1363 1359 1354 1349 1344 1338 1333 1327 1321 1316 1310 1305 1299 1294 1289 1283 1278 1273 1268 1264 1260 1256 1252 1248 1244 1240 1236 1233 1230 1227 1224 1221